#timestamp,LO_Frequency,Hit,StdDev 
1460091615.5,286047002.1,N
1460091635.3,286047001.1,N
1460091655.1,286047001.8,N
1460091675.8,286046999.6,N
1460091695.7,286046993.5,N
1460091715.5,286046992.7,N
1460091735.3,286046994.3,N
1460091755.2,286046994.4,N
1460091775.9,286046993.3,N
1460091795.7,286046994.5,N
1460091815.6,286046994.8,N
1460091835.4,286046990.8,N
1460091855.2,286046994.5,N
1460091875.1,286046996.4,N
1460091876.0,286046996.4,N
1460091895.8,286046996.1,N
1460091915.6,286046993.4,N
1460091935.5,286046992.0,N
1460091955.3,286046993.0,N
1460091975.1,286046990.1,N
1460091995.9,286046989.3,N
1460092015.7,286046990.8,N
1460092035.5,286046992.1,N
1460092055.3,286046993.1,N
1460092075.2,286046993.1,N
1460092095.0,286046994.3,N
1460092095.9,286046994.3,N
1460092115.7,286046996.0,N
1460092135.6,286046994.2,N
1460092155.4,286046992.6,N
1460092175.2,286046990.4,Y
1460092195.1,286046997.1,P
1460092196.0,286046997.1,N
1460092215.8,286047000.4,N
1460092235.6,286047000.6,N
1460092255.5,286047000.0,N
1460092275.3,286046997.8,N
1460092295.1,286046999.6,N
1460092315.9,286046996.9,N
1460092335.7,286047001.2,N
1460092355.5,286046996.9,N
1460092375.4,286046998.8,N
1460092395.2,286046995.5,N
1460092415.0,286046995.0,N
1460092415.9,286046995.0,N
1460092435.8,286046996.4,N
1460092455.6,286046999.0,N
1460092475.4,286046996.9,N
1460092495.2,286046998.0,N
1460092515.1,286046995.8,N
1460092516.0,286046995.8,N
1460092535.8,286046998.7,N
1460092555.6,286046998.0,N
1460092575.5,286046997.9,N
1460092595.3,286046996.3,N
1460092615.1,286046998.1,N
1460092635.9,286047000.8,N
1460092655.7,286046999.4,N
1460092675.5,286046999.3,N
1460092695.4,286046997.7,N
1460092715.2,286046997.7,N
1460092735.0,286046996.9,N
1460092735.9,286046996.9,N
1460092755.8,286046999.1,N
1460092775.6,286047001.0,N
1460092795.4,286046999.3,N
1460092815.3,286046997.3,N
1460092835.1,286046997.0,N
1460092836.0,286046997.0,N
1460092855.8,286046999.4,N
1460092875.6,286046996.2,N
1460092895.5,286046996.2,N
1460092915.3,286046994.1,Y
1460092935.1,286046996.7,P
1460092955.9,286046999.5,N
1460092975.7,286046998.4,N
1460092995.6,286046996.6,Y
1460093015.4,286046998.2,P
1460093035.2,286046997.5,P
1460093055.0,286046997.5,P
1460093056.0,286046997.5,Y
1460093075.8,286046998.6,P
1460093095.6,286047000.2,N
1460093115.4,286047001.9,N
1460093135.3,286046999.7,N
1460093155.1,286047003.8,N
1460093175.8,286047004.7,N
1460093195.7,286047003.4,N
1460093215.5,286047005.5,N
1460093235.3,286047003.9,N
1460093255.2,286047008.7,Y
1460093275.0,286047009.1,P
1460093275.9,286047009.1,N
1460093295.7,286047007.0,N
1460093315.6,286047005.1,N
1460093335.4,286047003.7,N
1460093355.2,286047005.6,N
1460093375.1,286047005.9,N
1460093376.0,286047005.9,N
1460093395.8,286047003.8,N
1460093415.6,286047007.5,Y
1460093435.5,286047002.7,P
1460093455.3,286047002.5,N
1460093475.1,286047004.2,N
1460093495.9,286047001.9,N
1460093515.7,286047003.8,N
1460093535.5,286047001.5,N
1460093555.4,286047001.4,N
1460093575.2,286047002.2,N
1460093595.0,286047003.5,N
1460093595.9,286047003.5,N
1460093615.8,286047004.5,Y
1460093635.6,286047004.0,P
1460093655.4,286047004.2,P
1460093675.3,286047004.7,P
1460093695.1,286047007.2,Y
1460093715.8,286047002.3,P
1460093735.7,286047001.0,N
1460093755.5,286047005.9,P
1460093775.3,286047003.1,N
1460093795.2,286047005.4,Y
1460093815.9,286047001.9,P
1460093835.7,286047002.5,P
1460093855.6,286047001.0,N
1460093875.4,286047001.1,N
1460093895.2,286047001.0,N
1460093915.1,286046999.0,N
1460093916.0,286046999.0,N
1460093935.8,286046999.1,N
1460093955.6,286046996.7,N
1460093975.5,286046998.0,N
1460093995.3,286046991.7,Y
1460094015.1,286046995.0,P
1460094035.9,286047001.2,N
1460094055.7,286046998.1,N
1460094075.5,286046998.1,N
1460094095.3,286046999.1,N
1460094115.2,286047002.1,N
1460094135.0,286047003.1,N
1460094135.9,286047003.1,N
1460094155.7,286046999.7,N
1460094175.6,286046998.6,N
1460094195.4,286047000.3,N
1460094215.2,286047002.3,N
1460094235.1,286047002.9,N
1460094236.0,286047002.9,N
1460094255.8,286047003.3,N
1460094275.6,286047005.5,N
1460094295.5,286047004.8,N
1460094315.3,286047004.9,N
1460094335.1,286047005.8,N
1460094355.9,286047003.3,N
1460094375.7,286047002.0,N
1460094395.5,286047002.7,N
1460094415.3,286047000.2,N
1460094435.2,286047002.4,N
1460094455.0,286047002.4,N
1460094455.9,286047002.4,N
1460094475.7,286047003.9,N
1460094495.6,286047002.4,N
1460094515.4,286046998.1,N
1460094535.2,286046999.6,N
1460094555.1,286046999.6,N
1460094556.0,286046999.6,N
1460094575.8,286046998.6,N
1460094595.6,286046999.7,N
1460094615.5,286047003.9,N
1460094635.3,286047004.0,N
1460094655.1,286047000.1,N
1460094675.9,286047000.1,N
1460094695.7,286046998.2,N
1460094715.5,286047000.7,N
1460094735.3,286047004.2,N
1460094755.2,286047000.1,N
1460094775.0,286047001.2,N
1460094775.9,286047001.2,N
1460094795.7,286046999.1,N
1460094815.6,286046997.9,N
1460094835.4,286046997.0,N
1460094855.2,286046997.9,N
1460094875.1,286046997.9,N
1460094876.0,286046997.9,N
1460094895.8,286046995.3,N
1460094915.6,286046993.7,N
1460094935.5,286046996.3,N
1460094955.3,286046991.7,Y
1460094975.1,286046993.7,P
1460094995.9,286046994.8,N
1460095015.7,286046996.2,N
1460095035.5,286046993.9,N
1460095055.4,286046995.3,N
1460095075.2,286046996.0,N
1460095095.0,286046993.6,Y
1460095095.9,286046993.6,P
1460095115.8,286046999.3,N
1460095135.6,286046997.4,N
1460095155.4,286046993.6,Y
1460095175.3,286046998.8,P
1460095195.1,286046999.1,N
